Home > Weather > Marl > Past weeks

Flag for Germany Weather for the Past 2 Weeks in Marl, North Rhine-Westphalia, Germany

Now
54 °F

Scattered clouds.


Feels Like: 50 °F
Forecast: 36 / 59 °F
Wind: 12 mph from Northwest

Location: Dortmund / Wickede

Current Time: May 3, 2016 at 12:59:13 PM

Latest Report: May 3, 2016 at 11:50 AM


Visibility: N/A

Pressure: 30.15 "Hg

Humidity: 67%

Dew Point: 43 °F

Location of MarlLocation

Historic Weather in Marl — Graph

°F

Marl Temperature Yesterday

Maximum temperature yesterday: 66 °F (at 4:50 PM)
Minimum temperature yesterday: 37 °F (at 6:20 AM)
Average temperature yesterday: 57 °F

High & Low Weather Summary for the Past Weeks

 TemperatureHumidityPressure
High66 °F (May 2, 4:50 PM)93% (Apr 20, 7:20 AM)30.48 "Hg (Apr 20, 7:20 AM)
Low32 °F (Apr 20, 5:50 AM)32% (May 2, 3:20 PM)29.45 "Hg (Apr 26, 1:50 PM)
Average46 °F65%30.02 "Hg
* Reported Apr 18 11:20 AM — May 3 11:20 AM, Marl, Weather by CustomWeather, © 2016

Note: Actual official high and low records may vary slightly from our data, if they occured in-between our weather recording intervals... More about our weather records

Advertising

Marl Weather History for the Previous 24 Hours

Scroll right to see more
 ConditionsComfort  
Time TempWeatherWind HumidityBarometerVisibility
11:20 AM
Tue, May 3
52 °FScattered clouds.12 mph62%30.15 "HgN/A
10:50 AM50 °FScattered clouds.9 mph71%30.15 "HgN/A
10:20 AM48 °FScattered clouds.9 mph76%30.15 "HgN/A
9:50 AM46 °FScattered showers. Scattered clouds.10 mph82%30.15 "HgN/A
9:20 AM46 °FScattered showers. Broken clouds.9 mph87%30.12 "HgN/A
8:50 AM46 °FScattered showers. Partly sunny.8 mph82%30.12 "HgN/A
8:20 AM45 °FLight rain. Partly sunny.9 mph87%30.09 "HgN/A
7:50 AM46 °FLight rain. Partly sunny.16 mph82%30.09 "Hg5 mi
7:20 AM50 °FSprinkles. Partly sunny.7 mph82%30.07 "Hg4 mi
6:50 AM50 °FScattered showers. Passing clouds.8 mph76%30.07 "HgN/A
5:50 AM50 °FPassing clouds.6 mph71%30.04 "HgN/A
5:20 AM52 °FPassing clouds.7 mph72%30.07 "HgN/A
9:50 PM
Mon, May 2
50 °FSunny.5 mph67%30.09 "Hg10 mi
9:20 PM55 °FSunny.3 mph59%30.09 "Hg10 mi
8:50 PM55 °FSunny.6 mph63%30.09 "Hg10 mi
8:20 PM57 °FSunny.6 mph59%30.09 "Hg10 mi
7:50 PM59 °FSunny.1 mph59%30.09 "Hg10 mi
6:50 PM63 °FSunny.3 mph45%30.09 "Hg10 mi
6:20 PM63 °FPassing clouds.5 mph52%30.12 "HgN/A
5:50 PM64 °FScattered clouds.3 mph40%30.12 "HgN/A
5:20 PM66 °FSunny.2 mph35%30.12 "Hg10 mi
4:50 PM66 °FScattered clouds.3 mph35%30.15 "HgN/A
4:20 PM64 °FScattered clouds.5 mph34%30.15 "HgN/A
3:50 PM64 °FPassing clouds.7 mph43%30.15 "HgN/A
3:20 PM64 °FSunny.1 mph32%30.18 "Hg10 mi
2:50 PM64 °FPassing clouds.5 mph37%30.18 "HgN/A
2:20 PM64 °FSunny.5 mph40%30.18 "Hg10 mi
1:50 PM64 °FSunny.3 mph34%30.21 "Hg10 mi
1:20 PM63 °FPassing clouds.6 mph39%30.21 "HgN/A
12:50 PM63 °FPassing clouds.6 mph39%30.21 "HgN/A
12:20 PM61 °FSunny.3 mph42%30.24 "Hg10 mi
Weather by CustomWeather, © 2016

See weather overviewHow to use our weather pages